Temp
6 6 6 6 7 7 7 7 7 7 8 8 8 8 8 8 8 8 7 7 6 6 6 6 5 5 6 6 5 5 4 5 6 6 6 6 7 6 7 7 6 5 5 6 5
6 6 6 6 6 6 6 7 7 7 7 7 7 8 8 8 8 7 7 6 6 6 6 5 5 5 5 5 5 5 5 6 6 6 6 6 6 7 7 6 5 5 5 5 5
6 6 6 6 6 6 6 6 6 7 7 7 7 8 8 7 7 7 7 6 6 6 6 5 5 5 5 5 5 5 6 6 6 7 6 6 6 6 6 5 5 5 4 4 4
5 5 6 6 6 6 6 6 6 6 7 7 7 7 7 7 7 7 6 6 6 6 6 5 5 5 5 5 5 6 6 6 7 7 7 6 6 6 6 5 5 5 4 4 4
5 5 5 5 6 6 6 6 6 6 6 7 7 7 7 7 7 7 6 6 6 6 5 5 4 5 5 5 6 6 6 7 7 7 6 6 6 6 6 5 5 4 4 3 3
5 5 5 5 5 6 6 6 5 6 6 6 6 7 7 7 7 7 6 5 5 6 5 4 4 5 5 5 6 6 6 6 6 6 6 5 6 6 5 5 5 4 4 3 2
4 4 5 5 5 5 6 6 5 6 6 6 6 7 7 7 7 7 6 5 5 5 5 4 4 5 5 5 6 6 6 6 6 5 5 5 5 5 5 5 5 4 4 4 2
3 4 4 5 5 5 5 5 5 6 6 6 6 7 7 7 7 6 6 5 5 5 4 4 5 5 5 5 5 6 6 6 5 5 5 5 5 5 5 5 5 4 4 4 3
2 3 4 4 4 5 5 5 5 6 6 5 6 6 7 7 7 6 6 5 5 5 5 5 5 5 5 5 5 5 6 6 6 5 5 5 6 5 5 5 5 4 4 4 3
2 2 3 3 3 4 5 5 5 5 6 5 5 6 6 7 6 6 5 5 5 5 5 5 5 5 5 5 5 6 6 6 6 6 5 5 6 6 6 5 5 5 5 5 4
1 1 2 2 3 3 4 4 4 5 5 5 6 6 6 6 6 6 5 5 5 5 5 5 5 5 5 5 6 6 6 6 6 6 6 6 6 7 6 6 6 5 5 5 5
1 1 1 2 2 2 3 3 4 3 5 6 5 7 6 6 6 5 5 5 5 5 5 5 5 5 5 5 6 6 5 6 6 6 6 7 7 7 7 7 6 6 6 6 6
0 1 1 1 2 2 2 1 3 2 3 6 6 7 6 5 6 5 5 5 5 5 5 5 5 5 5 5 5 6 5 5 6 6 6 7 7 8 8 7 7 6 6 5 6
0 0 0 1 1 2 1 1 1 1 1 5 6 7 7 6 6 5 5 5 5 5 5 5 6 6 6 5 5 5 6 6 5 5 6 6 7 8 7 7 7 7 7 6 6
-0 -0 -0 0 1 1 0 0 -0 -0 0 5 5 6 7 6 6 5 5 5 5 5 5 5 6 6 5 6 5 5 6 6 5 6 6 6 6 7 8 8 8 8 7 7 6
-1 -0 -1 -0 0 0 -0 -1 -1 -1 -1 5 5 5 6 5 5 6 5 4 5 5 5 5 5 5 6 5 5 5 5 5 5 6 6 6 6 7 8 8 8 8 8 8 7
-1 -1 -1 -1 0 -1 -1 -2 -2 -2 3 4 5 5 5 5 5 5 5 4 4 4 5 5 5 5 5 5 5 5 5 5 5 5 6 6 5 7 7 7 7 8 8 8 7
-1 -2 -1 -1 -0 -2 -3 -2 -2 -0 3 4 3 4 5 5 4 5 5 5 4 5 5 5 5 5 6 6 6 6 6 6 5 5 6 5 6 7 7 7 7 8 8 8 7
-4 -2 -2 -1 -1 -2 -3 -3 -1 -0 3 3 3 3 3 4 4 4 5 5 5 5 5 5 5 6 6 6 6 6 6 6 5 3 3 5 7 7 7 7 7 7 8 8 8
-8 -5 -2 -2 -2 -3 -4 -3 -2 -0 2 2 2 4 4 4 4 4 4 5 5 5 5 5 5 6 6 6 5 6 5 5 5 4 4 4 5 7 7 7 7 7 7 7 7
-9 -9 -3 -3 -3 -4 -4 -4 -3 -1 2 1 2 3 4 4 4 4 5 5 6 5 5 5 5 5 6 5 6 5 5 5 5 5 5 4 6 7 7 7 7 6 6 7 7
-9 -8 -8 -5 -6 -4 -4 -4 -4 -2 0 1 1 2 3 4 5 5 5 5 6 5 5 5 5 5 6 6 6 6 6 6 5 4 4 4 5 6 7 7 6 6 6 6 6
-9 -9 -8 -7 -6 -3 -2 -5 -4 -2 -0 -0 1 1 2 3 4 5 5 5 6 6 5 5 5 5 5 5 5 6 6 6 6 5 5 4 5 6 6 6 6 6 6 6 6
-9 -9 -8 -8 -4 -1 -4 -5 -5 -4 -1 -0 0 1 1 2 4 5 5 5 5 6 6 6 6 6 5 6 6 6 6 6 6 5 5 5 6 6 6 6 6 6 6 6 6
-9 -8 -8 -8 -6 -3 -4 -2 -5 -4 -2 -1 -0 1 1 2 3 4 5 5 5 5 6 6 5 6 6 6 6 6 6 6 6 6 5 6 6 6 6 6 6 6 6 6 6
-9 -8 -8 -7 -4 -5 -7 -5 -5 -4 -1 -1 -0 2 1 2 3 3 4 4 5 5 5 6 5 5 6 6 6 6 6 6 6 6 5 5 5 6 6 6 5 5 6 6 6
-9 -8 -8 -6 -6 -7 -5 -4 -5 -4 -2 -1 0 1 2 2 2 2 2 2 3 4 5 5 5 5 5 6 5 4 6 6 6 6 6 5 6 6 5 5 5 5 5 5 5
Height
3148 3149 3150 3150 3151 3150 3150 3150 3150 3149 3148 3147 3145 3144 3143 3140 3137 3135 3134 3133 3132 3131 3132 3132 3133 3133 3134 3134 3135 3135 3136 3135 3135 3134 3134 3132 3131 3130 3130 3128 3127 3127 3127 3126 3127
3144 3145 3145 3146 3146 3146 3146 3146 3145 3144 3144 3144 3142 3141 3139 3137 3135 3133 3133 3132 3131 3131 3131 3131 3132 3133 3134 3134 3135 3135 3135 3133 3133 3133 3132 3131 3130 3129 3128 3126 3125 3125 3124 3124 3125
3138 3140 3140 3140 3141 3141 3142 3141 3140 3140 3140 3140 3139 3138 3136 3134 3133 3131 3131 3131 3130 3130 3130 3130 3131 3132 3133 3134 3134 3132 3132 3132 3131 3131 3131 3130 3130 3129 3127 3124 3123 3122 3122 3122 3122
3133 3133 3135 3135 3135 3136 3136 3136 3135 3136 3136 3135 3135 3135 3133 3132 3133 3130 3129 3129 3129 3128 3128 3129 3130 3131 3132 3133 3132 3131 3129 3128 3128 3129 3129 3129 3129 3128 3125 3124 3122 3121 3119 3119 3120
3125 3128 3128 3130 3129 3130 3130 3131 3131 3131 3131 3131 3131 3131 3130 3130 3128 3127 3127 3127 3128 3127 3127 3128 3130 3130 3131 3132 3131 3129 3128 3126 3125 3127 3127 3128 3128 3126 3125 3123 3121 3121 3118 3117 3118
3116 3120 3122 3122 3124 3124 3125 3126 3125 3126 3127 3126 3126 3126 3127 3127 3125 3124 3125 3125 3126 3126 3127 3127 3129 3129 3130 3130 3130 3129 3127 3127 3126 3126 3126 3127 3127 3125 3125 3123 3122 3121 3119 3117 3118
3112 3110 3114 3115 3116 3118 3118 3119 3120 3121 3122 3122 3122 3122 3122 3123 3121 3121 3122 3123 3125 3126 3126 3127 3128 3129 3130 3129 3129 3129 3128 3128 3128 3128 3127 3126 3126 3125 3123 3122 3122 3122 3122 3121 3121
3104 3106 3105 3108 3108 3110 3112 3114 3114 3115 3117 3117 3118 3118 3117 3118 3118 3119 3120 3122 3123 3125 3126 3126 3127 3128 3128 3129 3128 3129 3129 3128 3128 3127 3126 3126 3125 3123 3123 3122 3122 3123 3123 3123 3123
3098 3099 3101 3100 3102 3102 3105 3107 3108 3109 3111 3111 3113 3114 3113 3114 3114 3115 3117 3120 3122 3124 3125 3125 3126 3126 3127 3127 3128 3128 3128 3128 3127 3126 3126 3126 3124 3123 3123 3121 3121 3123 3123 3124 3125
3093 3094 3095 3095 3095 3096 3099 3101 3101 3103 3105 3106 3107 3112 3110 3110 3110 3112 3115 3117 3120 3122 3124 3124 3124 3123 3123 3124 3126 3127 3127 3127 3126 3126 3124 3123 3122 3121 3122 3122 3121 3122 3124 3125 3126
3086 3088 3090 3090 3090 3091 3093 3095 3099 3099 3098 3100 3102 3103 3104 3106 3108 3110 3113 3116 3117 3119 3121 3121 3122 3122 3121 3122 3122 3125 3126 3124 3125 3124 3122 3121 3119 3120 3121 3121 3121 3122 3124 3125 3127
3077 3081 3083 3085 3085 3086 3088 3088 3091 3092 3090 3091 3094 3095 3100 3102 3104 3106 3110 3113 3114 3116 3119 3121 3119 3120 3120 3121 3122 3122 3124 3124 3124 3124 3121 3119 3118 3119 3119 3121 3122 3123 3125 3126 3127
3070 3073 3076 3079 3080 3083 3084 3082 3086 3085 3084 3085 3087 3088 3094 3097 3099 3101 3106 3109 3112 3114 3116 3117 3118 3118 3118 3119 3119 3120 3121 3122 3123 3121 3119 3117 3116 3116 3117 3119 3121 3122 3124 3126 3127
3062 3066 3070 3071 3077 3079 3079 3079 3082 3082 3082 3078 3079 3080 3086 3089 3093 3098 3102 3108 3109 3112 3114 3115 3115 3115 3115 3115 3117 3117 3118 3119 3120 3120 3119 3118 3117 3115 3116 3116 3118 3120 3121 3123 3124
3051 3059 3063 3065 3069 3074 3077 3077 3080 3081 3082 3073 3069 3071 3075 3081 3086 3090 3097 3102 3104 3107 3111 3113 3113 3112 3110 3113 3114 3116 3115 3116 3116 3117 3117 3116 3118 3114 3114 3114 3114 3115 3117 3120 3122
3040 3048 3054 3057 3065 3069 3072 3075 3078 3082 3070 3065 3064 3065 3070 3074 3081 3085 3091 3097 3102 3105 3107 3108 3110 3110 3110 3111 3112 3114 3114 3114 3114 3115 3116 3115 3116 3112 3111 3111 3111 3111 3112 3114 3118
3028 3037 3043 3050 3061 3061 3066 3072 3076 3069 3063 3061 3060 3061 3065 3069 3076 3079 3083 3088 3092 3098 3101 3104 3106 3108 3108 3109 3110 3111 3112 3113 3115 3115 3115 3114 3115 3110 3109 3108 3108 3107 3107 3108 3112
3014 3024 3031 3041 3052 3055 3061 3067 3061 3052 3057 3057 3057 3059 3062 3067 3072 3075 3080 3083 3088 3094 3098 3100 3103 3104 3105 3106 3107 3108 3109 3110 3112 3112 3112 3112 3111 3108 3108 3106 3105 3104 3103 3103 3105
2999 3009 3018 3031 3043 3047 3053 3052 3043 3045 3051 3056 3055 3056 3059 3063 3069 3071 3074 3078 3081 3086 3093 3095 3099 3100 3102 3102 3105 3105 3106 3107 3108 3110 3111 3108 3107 3106 3106 3104 3103 3102 3101 3101 3102
2987 2994 3004 3022 3032 3038 3042 3033 3038 3043 3047 3050 3052 3053 3054 3059 3063 3066 3069 3071 3077 3083 3089 3092 3095 3097 3098 3099 3100 3102 3104 3105 3105 3108 3108 3106 3104 3103 3103 3102 3102 3102 3100 3099 3099
2981 2984 2989 3010 3019 3024 3018 3019 3030 3039 3044 3045 3048 3049 3050 3053 3057 3060 3063 3067 3072 3078 3084 3089 3092 3094 3095 3094 3096 3099 3099 3101 3103 3103 3103 3103 3101 3100 3101 3101 3101 3101 3100 3099 3098
2971 2976 2979 2996 3004 3004 3002 3011 3023 3032 3038 3040 3042 3045 3047 3050 3052 3057 3059 3064 3067 3073 3077 3084 3087 3088 3091 3092 3093 3094 3095 3097 3099 3100 3099 3099 3094 3097 3097 3098 3098 3099 3098 3098 3097
2959 2969 2974 2983 2983 2990 2996 3005 3016 3024 3031 3034 3038 3042 3044 3046 3050 3052 3057 3063 3066 3068 3071 3078 3080 3084 3086 3089 3088 3089 3091 3092 3093 3094 3093 3095 3093 3093 3094 3094 3094 3094 3095 3095 3094
2951 2959 2965 2971 2977 2983 2986 2996 3005 3014 3023 3029 3032 3038 3041 3043 3045 3048 3053 3058 3063 3067 3070 3073 3075 3077 3078 3081 3085 3085 3086 3086 3087 3088 3087 3086 3086 3089 3090 3089 3090 3089 3090 3090 3091
2937 2943 2949 2952 2959 2970 2977 2986 2995 3005 3012 3023 3026 3032 3037 3040 3042 3046 3049 3055 3059 3062 3065 3068 3069 3072 3074 3076 3077 3078 3079 3080 3081 3082 3082 3082 3081 3083 3083 3083 3084 3084 3084 3085 3085
2923 2933 2942 2948 2956 2961 2968 2974 2984 2996 3004 3010 3017 3025 3033 3036 3040 3042 3045 3049 3052 3056 3059 3062 3064 3068 3070 3070 3071 3072 3074 3075 3076 3077 3076 3076 3074 3078 3077 3077 3077 3077 3078 3079 3079
2909 2923 2932 2938 2945 2953 2952 2965 2978 2991 2999 3005 3014 3021 3026 3033 3036 3038 3040 3045 3047 3049 3052 3055 3059 3062 3063 3065 3066 3067 3067 3069 3071 3071 3072 3069 3069 3071 3070 3070 3070 3070 3070 3071 3071
Wind_Speed
21 19 19 19 19 19 19 19 20 20 21 21 20 19 20 17 15 12 9 6 4 4 5 4 3 3 4 5 3 3 4 7 6 4 5 6 10 8 11 13 11 10 12 11 8
26 24 23 23 23 22 21 21 21 21 21 21 20 18 19 15 12 11 6 5 3 5 6 3 4 2 3 1 4 6 5 5 2 5 9 7 6 9 13 14 11 10 12 12 11
30 29 27 26 26 25 24 23 23 22 21 21 20 18 18 15 11 7 6 4 5 6 4 3 4 4 5 4 4 8 6 6 5 6 7 6 3 8 13 11 8 9 11 14 10
34 31 31 30 28 27 26 25 23 23 22 20 20 17 17 13 8 8 5 4 4 4 2 4 4 5 4 2 6 10 8 8 8 8 5 3 4 9 7 4 4 6 2 7 6
35 34 32 32 30 30 28 26 25 24 23 21 20 16 16 13 10 7 6 4 2 1 5 7 7 5 6 1 4 5 8 2 5 7 4 5 6 8 4 2 3 3 5 3 5
34 34 33 33 33 32 30 28 27 26 24 22 20 16 16 12 9 7 7 4 2 3 9 10 7 7 6 1 1 3 7 3 1 3 5 6 7 8 5 3 4 3 6 8 6
35 31 33 34 34 34 32 30 28 27 25 24 20 17 15 12 8 9 9 8 5 6 12 10 6 7 4 1 1 1 3 3 3 3 6 8 9 10 5 5 3 3 3 7 14
30 31 28 32 33 33 33 31 29 28 26 24 21 19 15 13 11 13 12 12 9 9 12 11 9 5 5 3 2 1 1 1 2 5 7 7 6 13 4 3 6 5 7 4 9
30 29 29 28 30 31 32 32 30 28 27 24 21 20 17 15 14 17 15 16 12 10 12 10 10 8 7 8 3 4 2 2 2 8 6 9 11 14 7 1 2 6 8 10 11
32 30 28 27 26 27 27 30 30 29 27 26 21 19 16 10 16 18 19 20 16 13 10 8 8 8 10 9 3 5 6 1 6 10 14 18 15 11 8 2 4 6 8 9 15
34 30 29 26 26 24 23 26 28 28 27 25 16 10 15 15 17 19 23 22 19 16 10 6 5 4 6 7 6 7 6 9 6 12 19 16 20 7 7 5 4 5 8 8 11
36 33 30 28 27 23 22 21 26 27 28 25 23 23 19 15 19 22 26 25 23 18 13 10 6 6 3 4 7 7 9 7 8 12 15 17 5 10 7 3 2 3 7 11 13
40 35 31 30 28 23 21 18 22 24 28 29 24 24 23 27 22 26 29 27 23 20 15 12 6 7 7 8 10 10 12 11 13 15 8 9 5 9 10 11 10 8 9 13 12
44 39 34 32 29 23 19 19 15 16 16 23 19 25 27 28 29 29 31 27 23 22 15 11 12 8 12 12 11 14 8 9 12 11 2 4 4 3 8 15 15 14 16 15 18
47 42 38 35 29 24 20 15 12 10 4 7 16 21 26 34 24 34 34 31 25 23 20 9 8 6 8 10 8 8 5 8 8 5 4 3 2 6 9 9 11 13 19 21 19
51 46 43 39 30 22 20 16 14 10 9 8 10 18 23 35 30 33 37 32 26 23 20 16 9 6 2 5 5 5 5 3 4 3 1 4 5 6 9 10 8 10 16 20 23
54 51 47 41 31 25 20 18 14 11 7 10 13 20 22 35 34 29 42 39 33 26 26 20 18 11 7 4 7 8 5 1 1 2 2 5 5 9 9 8 9 7 12 17 21
58 54 50 45 35 29 26 25 17 12 21 7 17 17 23 33 31 26 40 41 37 30 22 22 11 17 9 8 6 9 8 4 3 2 1 4 5 5 12 10 10 9 5 11 18
55 57 56 48 40 33 36 34 24 22 15 17 12 18 23 31 26 28 33 42 39 38 22 24 17 10 11 8 10 8 8 5 4 2 1 4 8 13 7 12 7 5 7 4 8
44 55 60 49 45 39 43 45 31 21 19 27 14 19 23 29 29 30 28 35 38 37 30 15 8 18 15 12 12 10 5 3 4 3 3 4 4 4 10 3 7 9 7 2 6
38 40 63 52 48 45 56 50 44 32 25 14 25 13 18 27 34 37 21 16 36 35 32 27 17 10 17 16 13 14 14 9 5 5 3 2 5 4 8 5 10 10 10 8 6
38 44 49 53 52 55 61 49 37 46 26 20 17 19 17 22 30 30 36 27 20 33 35 28 16 21 18 16 16 17 16 15 9 6 9 9 17 16 7 6 9 12 12 6 11
43 46 32 47 61 61 63 51 41 33 46 31 22 15 15 17 21 31 32 29 15 30 34 30 18 18 10 19 20 19 21 19 18 20 19 10 10 10 13 13 13 16 12 13 12
48 45 33 41 63 68 60 47 49 47 35 44 31 21 14 13 22 14 34 30 30 18 28 24 28 21 20 23 16 21 24 23 23 16 20 27 28 22 16 14 11 13 15 14 14
54 39 52 52 60 69 63 64 50 41 51 47 40 32 19 9 13 18 21 32 30 29 26 26 20 23 27 24 25 25 23 20 19 22 24 27 28 22 17 18 15 15 15 17 17
59 43 51 44 60 67 52 55 52 46 42 54 50 40 30 17 9 18 16 18 28 33 33 32 26 24 26 24 25 22 22 21 20 21 24 25 29 23 21 20 18 18 17 16 17
67 64 46 62 43 55 72 61 44 45 51 40 47 43 41 26 19 15 7 10 14 16 28 32 31 29 25 25 25 22 27 26 24 24 26 31 33 28 27 27 28 28 29 27 25
Wind_Direction
267 267 269 272 275 279 283 288 295 301 306 310 314 320 319 322 322 326 318 319 327 311 303 283 255 243 253 265 248 253 274 292 292 312 337 344 354 352 340 325 308 287 273 273 271
267 266 267 270 273 276 280 285 290 295 300 304 309 315 314 319 314 319 316 316 324 320 289 276 254 249 228 240 319 305 315 317 255 298 331 317 333 335 337 318 308 292 271 264 270
264 265 265 266 270 273 276 280 285 290 294 300 305 308 311 315 311 311 306 311 307 309 285 244 220 174 207 274 283 280 296 277 230 271 300 308 298 326 334 326 334 349 272 255 256
264 262 264 264 266 270 273 277 280 284 288 294 298 301 305 308 307 299 285 293 314 297 232 195 191 171 197 220 279 293 291 277 242 253 231 238 303 322 349 2 0 23 228 232 235
266 266 264 266 266 267 269 272 275 278 283 288 291 295 297 299 286 277 246 269 331 252 178 165 163 180 172 256 276 301 326 75 193 194 212 229 282 316 14 13 76 66 40 125 165
261 265 265 265 266 266 267 268 271 274 277 280 285 288 291 293 282 239 211 206 204 198 172 170 173 172 172 152 6 7 26 56 160 192 224 248 278 313 328 295 132 129 28 104 113
265 259 263 263 264 265 265 266 266 269 273 276 281 279 282 279 250 224 202 179 177 187 187 192 180 184 204 180 358 353 25 12 19 14 330 290 276 311 295 283 179 179 105 98 115
260 263 258 261 261 263 265 264 265 266 268 271 275 274 275 263 229 211 200 173 175 188 200 216 230 226 243 265 280 249 45 254 87 63 27 356 315 323 292 345 222 215 200 172 172
258 257 258 257 259 260 262 262 262 263 265 266 270 270 272 253 219 212 192 169 175 191 212 235 255 258 252 245 272 225 208 345 33 321 341 332 337 333 323 350 135 193 196 161 142
256 255 255 255 256 259 259 261 260 259 260 264 264 265 253 234 209 211 191 178 179 194 204 223 244 245 242 210 204 209 238 188 296 308 319 334 342 323 306 255 147 158 181 175 168
251 253 253 253 255 256 256 260 260 259 253 255 242 233 242 226 208 206 192 188 191 204 200 206 208 235 187 196 205 242 234 253 312 319 314 312 328 291 294 240 186 175 167 157 152
245 248 250 251 252 255 252 256 259 259 258 254 247 239 229 212 206 202 194 198 200 205 201 210 192 176 177 210 231 255 271 257 287 311 309 315 303 242 249 237 231 191 186 171 171
241 242 243 248 249 248 253 249 255 260 267 252 253 243 226 225 217 205 198 201 205 207 205 212 181 193 236 263 252 256 268 267 286 314 321 327 304 239 256 244 228 221 202 202 199
240 239 239 242 246 245 251 243 241 254 273 267 260 245 229 223 223 201 201 205 207 208 207 233 231 237 257 252 249 258 272 278 284 296 284 336 301 304 290 273 256 227 218 211 215
235 237 237 237 238 243 245 233 215 225 292 241 225 219 214 210 223 201 200 203 209 206 204 203 207 255 261 217 228 275 280 276 273 214 289 249 257 300 291 283 272 243 229 220 218
232 231 234 235 233 239 238 209 194 199 239 223 212 211 205 199 201 197 200 205 208 212 212 223 236 241 134 178 194 249 293 221 183 209 290 253 222 286 284 289 269 266 246 232 219
228 228 230 231 224 219 215 191 187 221 227 225 217 212 204 194 195 195 199 202 202 202 214 223 234 239 231 234 236 228 211 206 146 137 201 213 253 278 302 296 295 287 255 231 226
223 224 225 226 220 212 189 194 218 226 217 205 207 206 205 195 194 197 203 207 211 208 207 216 229 234 234 251 222 208 208 174 180 188 242 269 239 286 311 317 302 293 271 219 208
221 220 221 219 216 208 192 208 220 219 211 223 207 203 203 198 197 199 203 213 211 204 199 211 224 228 216 228 213 214 207 210 161 214 216 239 272 296 350 325 309 283 275 246 214
229 217 219 211 211 203 198 217 218 203 208 211 216 206 205 203 202 201 203 215 212 210 205 209 207 225 209 223 222 220 207 184 200 178 240 246 260 292 349 49 71 33 28 7 219
228 219 216 204 204 200 207 215 220 207 204 212 217 217 214 212 208 205 209 212 208 206 210 219 218 223 219 208 215 215 230 231 226 212 205 255 249 239 318 296 330 342 348 332 339
219 210 221 199 194 206 214 210 214 211 208 221 216 220 217 217 216 213 212 211 209 205 210 217 228 235 237 229 227 230 246 252 232 230 226 249 263 280 280 294 305 313 321 315 326
212 206 219 208 198 208 218 212 220 213 211 223 218 217 218 217 214 220 215 214 212 207 212 217 221 222 228 236 234 234 244 252 257 260 252 230 244 282 281 293 286 290 286 291 289
203 203 203 208 209 214 212 211 213 217 216 217 219 217 210 208 204 217 217 216 208 206 215 220 221 230 231 239 242 239 249 257 255 247 249 246 263 281 274 280 297 280 266 271 281
203 207 202 204 205 211 217 217 208 213 216 219 227 217 216 213 198 200 207 215 210 215 214 216 227 239 246 257 250 251 255 248 245 266 254 274 267 279 267 272 278 289 278 268 268
203 201 207 206 206 206 208 209 210 207 215 218 221 224 218 208 172 167 192 209 218 223 224 228 239 243 250 255 249 240 241 253 261 262 266 265 264 270 274 269 271 274 272 270 269
203 202 201 204 213 208 210 211 208 215 217 221 222 223 228 212 207 214 212 221 198 206 222 232 235 236 234 237 237 241 245 252 255 263 272 268 278 283 279 278 277 278 279 274 270